Погода в Исмаилии

Египет     30°35′59″N   32°14′40″E
темп.,
°C
ветер,
м/с
пор.,
м/с
влажн.,
%
обл.,
%
осадки,
мм/ч
давл.,
гПа
погр.,
м
8 марта, пн
пн823:00+15св23710 0.0 101988
02:00+14св23800 0.0 101728
05:00+12всв22850 0.0 101725
08:00+14св12730 0.0 1018222
11:00+19св33480 0.0 1018862
14:00+22ссв34330 0.0 10161347
17:00+21св65360 0.0 1016936
20:00+17всв57520 0.0 1017235
9 марта, вт
вт923:00+16св455841 0.0 1017101
02:00+15всв345828 0.0 101651
05:00+15вюв234733 0.0 101525
08:00+18в233532 0.0 1016121
11:00+25всв56170 0.0 1015670
14:00+28всв66140 0.0 1013820
17:00+28юв331424 0.0 1012112
20:00+23в452232 0.0 101348
10 марта, ср
ср1023:00+22ююв56220 0.0 101261
02:00+19в12270 0.0 101123
05:00+20юв45260 0.0 101031
08:00+23ююв572625 0.0 1011126
11:00+33ю4790 0.0 10111035
14:00+35з101260 0.0 10091856
17:00+34юз5863 0.0 1009161
20:00+23с46291 0.0 1011153
11 марта, чт
чт1123:00+20зсз343742 0.0 1012113
02:00+17з465322 0.0 1012179
05:00+15з357436 0.0 1013139
08:00+17зсз457543 0.0 1014355
11:00+22зюз124313 0.0 1014659
14:00+27зсз362656 0.0 10121376
17:00+22ссв81053100 0.0 1013431
20:00+19с5761100 0.0 1015523
12 марта, пт
пт1223:00+17сз2368100 0.0 1015203
02:00+15зсз578374 0.0 1014287
05:00+14з6108511 0.0 1015389
08:00+16зсз79697 0.0 1017923
11:00+21сз56390 0.0 10171350
14:00+24с66250 0.0 10151845
17:00+19с9104557 0.0 1015885
20:00+16с686644 0.0 1018711